Flag for Mozambique Weather past 2 weeks in Beira, Mozambique

Now
73 °F

Sunny.


Feels Like: 76 °F
Forecast: 70 / 87 °F
Wind: N/A

Location: Chimoio Airport

Current Time: Aug 31, 2015 at 11:14:54 AM

Latest Report: Aug 31, 2015 at 10:00 AM


Visibility: 10 mi

Pressure: 30.27 "Hg

Humidity: 61%

Dew point: 59 °F

Location of BeiraLocation

Historic Weather in Beira — Graph

°F

Beira temperature yesterday

Maximum temperature yesterday: 82 °F (at 1:00 PM)
Minimum temperature yesterday: 59 °F (at 11:00 AM)
Average temperature yesterday: 70 °F

Past Weeks' High & Low Weather Summary

 TemperatureHumidityPressure
High86 °F (Aug 29, 1:00 PM)100% (Aug 17, 2:00 AM)30.36 "Hg (Aug 17, 2:00 AM)
Low57 °F (Aug 18, 5:00 AM)37% (Aug 19, 3:00 PM)30.01 "Hg (Aug 24, 5:00 PM)
Average69 °F72%30.21 "Hg
* Reported Aug 16 11:00 AM — Aug 31 10:00 AM, Beira, Weather by CustomWeather, © 2015

Note: Actual official high and low records may vary slightly from our data, if they occured in-between our weather recording intervals... More about our weather records

Advertising

Beira weather history for previous 24 hours

 ConditionsComfort  
Time TempWeatherWind HumidityBarometerVisibility
10:00 AM
Mon, Aug 31
73 °FSunny.N/A61%30.27 "Hg10 mi
9:00 AM66 °FSunny.N/A94%30.24 "Hg10 mi
8:00 AM64 °FSunny.N/A94%30.24 "Hg10 mi
6:00 AM59 °FPassing clouds.N/A100%30.18 "HgN/A
5:00 AM59 °FFog.N/A100%30.21 "Hg1 mi
11:00 PM
Sun, Aug 30
68 °FPassing clouds.N/A94%30.24 "HgN/A
10:00 PM68 °FPassing clouds.N/A100%30.18 "HgN/A
9:00 PM70 °FClear.N/A88%30.15 "Hg10 mi
8:00 PM72 °FClear.N/A78%30.18 "Hg10 mi
7:00 PM73 °FClear.N/A61%30.15 "Hg10 mi
6:00 PM77 °FClear.N/A51%30.15 "Hg10 mi
5:00 PM63 °FSunny.N/A83%30.15 "Hg10 mi
4:00 PM81 °FPassing clouds.N/A45%30.15 "HgN/A
3:00 PM82 °FPassing clouds.9 mph48%30.15 "HgN/A
2:00 PM81 °FScattered clouds.9 mph48%30.15 "HgN/A
1:00 PM82 °FPassing clouds.9 mph42%30.21 "HgN/A
12:00 PM81 °FPassing clouds.9 mph45%30.24 "HgN/A
11:00 AM59 °FSunny.7 mph94%30.27 "Hg10 mi
Weather by CustomWeather, © 2015

See weather overviewHow to use our weather pages